Volver al catálogo

ONEWEB-0279

ActivoComunicacionesPO
NORAD 48997·PAYLOAD·🇬🇧 United Kingdom

Lanzado Jul 1, 2021 desde Vostochny Cosmodrome

Loading…

Próximos Pases (próximas 24 horas)

TLE

ActualizadoSource: CelesTrak SupGP

Época: Sep 14, 2026, 13:51 UTC

1 48997C 21060AG  26257.57757361 -.00000499  00000+0 -13067-2 0  2578
2 48997  87.9148 211.0237 0002258  76.0071 319.1267 13.16590601    12

Sigue ONEWEB-0279 en tiempo real con AllMySat

Download on the App Store